| time (UTC) | temp C | wind direction | speed KPH | gust KPH | rain 1hr cm | rain 24hr cm | rain mn cm | humidity % | barometer mb |
| 20260509134628 | 22 | 203 | 6.4 | 9.7 | 0.00 | 0.00 | 0.00 | 93 | 1010.0 |
| 20260509133058 | 22 | 203 | 3.2 | 6.4 | 0.00 | 0.00 | 0.00 | 94 | 1010.0 |
| 20260509131556 | 22 | 203 | 3.2 | 6.4 | 0.00 | 0.00 | 0.00 | 94 | 1010.0 |
| 20260509130055 | 22 | 203 | 0.0 | 0.0 | 0.00 | 0.00 | 0.00 | 94 | 1010.2 |
| 20260509124554 | 22 | 203 | 0.0 | 0.0 | 0.00 | 0.00 | 0.00 | 94 | 1010.3 |
| 20260509123055 | 21 | 203 | 0.0 | 0.0 | 0.00 | 0.00 | 0.00 | 94 | 1010.0 |
| 20260509121554 | 21 | 203 | 0.0 | 1.6 | 0.00 | 0.00 | 0.00 | 94 | 1010.1 |
| 20260509120053 | 21 | 203 | 1.6 | 4.8 | 0.00 | 0.00 | 0.00 | 94 | 1010.1 |
| 20260509114553 | 21 | 203 | 1.6 | 12.9 | 0.00 | 0.00 | 0.00 | 94 | 1010.1 |
| 20260509113057 | 21 | 203 | 0.0 | 0.0 | 0.00 | 0.00 | 0.00 | 94 | 1009.3 |
| 20260509111551 | 21 | 203 | 0.0 | 0.0 | 0.00 | 0.00 | 0.00 | 94 | 1009.2 |
| 20260509110051 | 21 | 203 | 0.0 | 1.6 | 0.00 | 0.00 | 0.00 | 95 | 1008.5 |
| 20260509103045 | 21 | 203 | 0.0 | 3.2 | 0.00 | 0.00 | 0.00 | 94 | 1006.8 |
| 20260509101551 | 21 | 203 | 0.0 | 4.8 | 0.00 | 0.00 | 0.00 | 94 | 1006.8 |
| 20260509100041 | 21 | 203 | 0.0 | 12.9 | 0.00 | 0.00 | 0.00 | 94 | 1007.3 |
| 20260509094537 | 21 | 203 | 0.0 | 4.8 | 0.00 | 0.00 | 0.00 | 93 | 1008.3 |
| 20260509093035 | 21 | 203 | 0.0 | 0.0 | 0.00 | 0.00 | 0.00 | 93 | 1008.8 |
| 20260509091532 | 21 | 203 | 0.0 | 0.0 | 0.00 | 0.00 | 0.00 | 92 | 1009.0 |
| 20260509090031 | 21 | 203 | 0.0 | 0.0 | 0.00 | 0.00 | 0.00 | 92 | 1009.5 |
| 20260509084530 | 21 | 203 | 0.0 | 0.0 | 0.00 | 0.00 | 0.00 | 92 | 1009.5 |
| 20260509083036 | 21 | 203 | 0.0 | 0.0 | 0.00 | 0.00 | 0.00 | 92 | 1009.8 |
| 20260509081533 | 21 | 203 | 0.0 | 0.0 | 0.00 | 0.00 | 0.00 | 92 | 1010.1 |
| 20260509080028 | 21 | 203 | 0.0 | 0.0 | 0.00 | 0.00 | 0.00 | 92 | 1010.4 |
| 20260509074528 | 21 | 202 | 0.0 | 0.0 | 0.00 | 0.00 | 0.00 | 92 | 1010.3 |
| 20260509073027 | 21 | 203 | 0.0 | 0.0 | 0.00 | 0.00 | 0.00 | 92 | 1010.5 |
| 20260509071527 | 21 | 203 | 0.0 | 8.0 | 0.00 | 0.00 | 0.00 | 92 | 1010.4 |
| 20260509070026 | 21 | 204 | 0.0 | 0.0 | 0.00 | 0.00 | 0.00 | 91 | 1010.4 |
| 20260509064525 | 21 | 204 | 0.0 | 0.0 | 0.00 | 0.00 | 0.00 | 90 | 1010.1 |
| 20260509063022 | 22 | 204 | 0.0 | 4.8 | 0.00 | 0.00 | 0.00 | 89 | 1010.3 |
| 20260509061525 | 22 | 204 | 0.0 | 11.3 | 0.00 | 0.00 | 0.00 | 89 | 1010.1 |
| 20260509060021 | 22 | 204 | 3.2 | 9.7 | 0.00 | 0.00 | 0.00 | 90 | 1009.2 |
| 20260509054517 | 22 | 195 | 8.0 | 14.5 | 0.00 | 0.00 | 0.00 | 90 | 1010.2 |
| 20260509053014 | 22 | 201 | 3.2 | 4.8 | 0.00 | 0.00 | 0.00 | 89 | 1010.7 |
| 20260509051514 | 22 | 201 | 0.0 | 0.0 | 0.00 | 0.00 | 0.00 | 88 | 1010.8 |
| 20260509050009 | 22 | 201 | 0.0 | 0.0 | 0.00 | 0.00 | 0.00 | 87 | 1010.8 |
| 20260509044508 | 22 | 202 | 0.0 | 0.0 | 0.00 | 0.00 | 0.00 | 86 | 1010.7 |
| 20260509043009 | 22 | 201 | 0.0 | 0.0 | 0.00 | 0.00 | 0.00 | 86 | 1010.5 |
| 20260509041509 | 22 | 201 | 0.0 | 4.8 | 0.00 | 0.00 | 0.00 | 85 | 1010.3 |
| 20260509040006 | 22 | 201 | 1.6 | 4.8 | 0.00 | 0.00 | 0.00 | 85 | 1010.0 |
| 20260509034524 | 22 | 201 | 0.0 | 6.4 | 0.00 | 0.00 | 0.00 | 85 | 1009.6 |
| 20260509033106 | 22 | 201 | 4.8 | 6.4 | 0.00 | 0.00 | 0.00 | 84 | 1009.7 |
| 20260509031508 | 22 | 202 | 0.0 | 0.0 | 0.00 | 0.00 | 0.00 | 86 | 1009.6 |
| 20260509030005 | 22 | 202 | 0.0 | 0.0 | 0.00 | 0.00 | 0.00 | 86 | 1009.7 |
| 20260509024504 | 22 | 202 | 0.0 | 0.0 | 0.00 | 0.00 | 0.00 | 86 | 1009.4 |
| 20260509023005 | 22 | 201 | 0.0 | 0.0 | 0.00 | 0.00 | 0.00 | 86 | 1009.2 |
| 20260509021505 | 22 | 201 | 0.0 | 0.0 | 0.00 | 0.00 | 0.00 | 86 | 1008.9 |
| 20260509020002 | 22 | 201 | 0.0 | 0.0 | 0.00 | 0.00 | 0.00 | 86 | 1008.9 |
| 20260509014501 | 22 | 201 | 0.0 | 0.0 | 0.00 | 0.00 | 0.00 | 86 | 1008.8 |
| 20260509013003 | 22 | 201 | 0.0 | 0.0 | 0.00 | 0.00 | 0.00 | 86 | 1008.6 |
| 20260509011501 | 22 | 201 | 0.0 | 0.0 | 0.00 | 0.00 | 0.00 | 87 | 1008.4 |
| 20260509010104 | 22 | 201 | 0.0 | 6.4 | 0.00 | 0.00 | 0.00 | 87 | 1008.1 |
| 20260509004622 | 22 | 200 | 3.2 | 6.4 | 0.00 | 0.00 | 0.00 | 87 | 1008.0 |
| 20260509003059 | 22 | 201 | 3.2 | 4.8 | 0.00 | 0.00 | 0.00 | 84 | 1008.1 |
| 20260509001600 | 23 | 201 | 3.2 | 4.8 | 0.00 | 0.00 | 0.00 | 83 | 1008.3 |
| 20260509000057 | 23 | 201 | 0.0 | 3.2 | 0.00 | 0.00 | 0.00 | 81 | 1008.3 |
| 20260508234605 | 23 | 201 | 3.2 | 9.7 | 0.00 | 0.00 | 0.00 | 77 | 1008.4 |
| 20260508233057 | 23 | 200 | 8.0 | 12.9 | 0.00 | 0.00 | 0.00 | 76 | 1008.2 |
| 20260508231557 | 24 | 204 | 3.2 | 11.3 | 0.00 | 0.00 | 0.00 | 74 | 1008.2 |
| 20260508230055 | 23 | 203 | 1.6 | 16.1 | 0.00 | 0.00 | 0.00 | 75 | 1008.3 |
| 20260508224556 | 23 | 200 | 11.3 | 25.7 | 0.00 | 0.00 | 0.00 | 74 | 1008.0 |
| 20260508223053 | 23 | 201 | 3.2 | 22.5 | 0.00 | 0.00 | 0.00 | 76 | 1008.1 |
| 20260508221551 | 22 | 206 | 3.2 | 12.9 | 0.00 | 0.00 | 0.00 | 79 | 1008.3 |
| 20260508220046 | 22 | 207 | 6.4 | 9.7 | 0.00 | 0.00 | 0.00 | 79 | 1008.8 |
| 20260508214559 | 22 | 207 | 0.0 | 1.6 | 0.00 | 0.00 | 0.00 | 80 | 1009.5 |
| 20260508213041 | 22 | 207 | 0.0 | 0.0 | 0.00 | 0.00 | 0.00 | 80 | 1010.1 |
| 20260508211541 | 22 | 207 | 0.0 | 0.0 | 0.00 | 0.00 | 0.00 | 76 | 1009.8 |
| 20260508210043 | 22 | 207 | 0.0 | 0.0 | 0.00 | 0.00 | 0.00 | 75 | 1010.0 |
| 20260508204541 | 23 | 207 | 0.0 | 0.0 | 0.00 | 0.00 | 0.00 | 73 | 1010.5 |
| 20260508203039 | 23 | 207 | 0.0 | 1.6 | 0.00 | 0.00 | 0.00 | 71 | 1010.7 |
| 20260508201538 | 25 | 207 | 0.0 | 1.6 | 0.00 | 0.00 | 0.00 | 66 | 1010.3 |
| 20260508200041 | 25 | 207 | 0.0 | 1.6 | 0.00 | 0.00 | 0.00 | 65 | 1010.4 |
| 20260508194532 | 25 | 207 | 0.0 | 1.6 | 0.00 | 0.00 | 0.00 | 69 | 1010.7 |
| 20260508193033 | 23 | 207 | 0.0 | 6.4 | 0.00 | 0.00 | 0.00 | 71 | 1010.6 |
| 20260508191527 | 23 | 207 | 0.0 | 6.4 | 0.00 | 0.00 | 0.00 | 72 | 1010.9 |
| 20260508190039 | 22 | 207 | 3.2 | 6.4 | 0.00 | 0.00 | 0.00 | 73 | 1011.4 |
| 20260508184528 | 22 | 207 | 4.8 | 9.7 | 0.00 | 0.00 | 0.00 | 74 | 1011.6 |
| 20260508183028 | 22 | 207 | 6.4 | 9.7 | 0.00 | 0.00 | 0.00 | 74 | 1011.4 |
| 20260508181518 | 22 | 207 | 8.0 | 12.9 | 0.00 | 0.00 | 0.00 | 73 | 1011.9 |
| 20260508180012 | 22 | 207 | 9.7 | 14.5 | 0.00 | 0.00 | 0.00 | 72 | 1012.1 |
| 20260508174511 | 21 | 207 | 11.3 | 14.5 | 0.00 | 0.00 | 0.00 | 71 | 1012.3 |
| 20260508173008 | 22 | 207 | 4.8 | 14.5 | 0.00 | 0.00 | 0.00 | 70 | 1012.6 |
| 20260508171504 | 21 | 207 | 8.0 | 14.5 | 0.00 | 0.00 | 0.00 | 71 | 1012.7 |
| 20260508170001 | 21 | 207 | 8.0 | 9.7 | 0.00 | 0.00 | 0.00 | 74 | 1012.8 |
| 20260508164601 | 21 | 207 | 4.8 | 6.4 | 0.00 | 0.00 | 0.00 | 75 | 1013.4 |
| 20260508163055 | 20 | 207 | 6.4 | 9.7 | 0.00 | 0.00 | 0.00 | 77 | 1013.8 |
| 20260508161556 | 20 | 207 | 8.0 | 9.7 | 0.00 | 0.00 | 0.00 | 79 | 1014.1 |
| 20260508160053 | 20 | 207 | 3.2 | 8.0 | 0.00 | 0.00 | 0.00 | 79 | 1014.2 |
| 20260508154552 | 20 | 207 | 3.2 | 8.0 | 0.00 | 0.00 | 0.00 | 79 | 1014.4 |
| 20260508153056 | 19 | 207 | 3.2 | 8.0 | 0.00 | 0.00 | 0.00 | 80 | 1014.6 |
| 20260508151550 | 19 | 207 | 0.0 | 0.0 | 0.00 | 0.00 | 0.00 | 78 | 1014.8 |
| 20260508150049 | 20 | 207 | 0.0 | 0.0 | 0.00 | 0.00 | 0.00 | 76 | 1014.6 |
| 20260508144552 | 20 | 207 | 0.0 | 0.0 | 0.00 | 0.00 | 0.00 | 74 | 1014.6 |
| 20260508143054 | 20 | 207 | 0.0 | 1.6 | 0.00 | 0.00 | 0.00 | 74 | 1014.6 |
| 20260508141556 | 20 | 207 | 0.0 | 1.6 | 0.00 | 0.00 | 0.00 | 74 | 1014.6 |
| 20260508140044 | 19 | 207 | 0.0 | 4.8 | 0.00 | 0.00 | 0.00 | 76 | 1014.7 |